Date String (YYYY-MM-DD hh:mm:ss) UTC,Instrument flags,Ambient pressure (hPa),Sample flow (lpm),Bypass flow (lpm),Sample temperature (°C),Ambient temperature (°C),ASC tube jacket temperature (°C),LED temperature (°C),Box temperature (°C),Sample RH (%),Span deviation,Mass concentration (μg/m³),Mass concentration (μg/m³),Mass concentration (μg/m³)
DateTimeUTC,F1_M11,P_M11,Q1_M11,Q2_M11,T1_M11,T2_M11,T3_M11,T4_M11,T5_M11,U1_M11,ZSPAN_M11,X0_M11,X2_M11,X1_M11
2022-02-07 09:00:00,,0833.4,5.01,0.00,22.7,22.3,00.0,31.6,24.5,05.3,0000.0,0001.74,0000.47,0000.41
2022-02-07 09:01:00,,0833.4,5.01,0.00,22.7,22.2,00.0,31.6,24.4,05.3,0000.0,0001.74,0000.48,0000.41
2022-02-07 09:02:00,,0833.4,4.99,0.00,22.7,22.1,00.0,31.6,24.4,05.4,0000.0,0001.70,0000.49,0000.41
2022-02-07 09:03:00,,0833.4,4.99,0.00,22.7,22.0,00.0,31.6,24.3,05.4,0000.0,0001.41,0000.48,0000.40
2022-02-07 09:04:00,,0833.4,4.99,0.00,22.6,22.0,00.0,31.6,24.3,05.3,0000.0,0001.41,0000.48,0000.40
2022-02-07 09:05:00,,0833.4,5.01,0.00,22.6,21.9,00.0,31.6,24.3,05.3,0000.0,0001.35,0000.50,0000.41
2022-02-07 09:06:00,,0833.4,4.98,0.00,22.6,21.9,00.0,31.6,24.3,05.3,0000.0,0000.79,0000.49,0000.40
2022-02-07 09:07:00,,0833.4,5.00,0.00,22.6,21.9,00.0,31.6,24.3,05.4,0000.0,0001.25,0000.49,0000.39
2022-02-07 09:08:00,,0833.4,5.01,0.00,22.6,21.8,00.0,31.6,24.3,05.6,0000.0,0001.30,0000.50,0000.39
2022-02-07 09:09:00,,0833.4,5.00,0.00,22.5,21.8,00.0,31.6,24.2,05.6,0000.0,0001.31,0000.51,0000.39
2022-02-07 09:10:00,,0833.4,4.99,0.00,22.5,21.8,00.0,31.5,24.2,05.7,0000.0,0001.28,0000.49,0000.38
2022-02-07 09:11:00,,0833.4,5.01,0.00,22.5,21.7,00.0,31.5,24.2,05.7,0000.0,0001.27,0000.48,0000.37
2022-02-07 09:12:00,,0833.4,4.99,0.00,22.5,21.7,00.0,31.5,24.1,05.8,0000.0,0001.28,0000.48,0000.37
2022-02-07 09:13:00,,0833.4,4.99,0.00,22.4,21.7,00.0,31.5,24.1,05.8,0000.0,0001.25,0000.47,0000.38
2022-02-07 09:14:00,,0833.4,5.01,0.00,22.4,21.7,00.0,31.5,24.1,05.8,0000.0,0001.34,0000.50,0000.39
2022-02-07 09:15:00,,0833.4,5.00,0.00,22.4,21.6,00.0,31.5,24.1,05.8,0000.0,0001.34,0000.50,0000.39
2022-02-07 09:16:00,,0833.4,5.01,0.00,22.4,21.6,00.0,31.5,24.1,05.9,0000.0,0001.32,0000.49,0000.39
2022-02-07 09:17:00,,0833.4,5.00,0.00,22.4,21.7,00.0,31.5,24.1,05.9,0000.0,0001.15,0000.48,0000.39
2022-02-07 09:18:00,,0833.4,5.00,0.00,22.5,22.3,00.0,31.5,24.2,05.9,0000.0,0000.69,0000.47,0000.40
2022-02-07 09:19:00,,0833.5,4.99,0.00,22.6,23.0,00.0,31.5,24.5,05.9,0000.0,0000.66,0000.46,0000.40
2022-02-07 09:20:00,,0833.4,5.01,0.00,22.7,23.2,00.0,31.5,24.6,05.9,0000.0,0000.67,0000.46,0000.39
2022-02-07 09:21:00,,0833.4,5.01,0.00,22.7,23.0,00.0,31.5,24.6,06.0,0000.0,0000.68,0000.47,0000.40
2022-02-07 09:22:00,,0833.4,5.00,0.00,22.7,22.8,00.0,31.6,24.5,06.0,0000.0,0000.75,0000.49,0000.40
2022-02-07 09:23:00,,0833.4,5.00,0.00,22.7,22.6,00.0,31.6,24.5,06.0,0000.0,0000.77,0000.50,0000.40
2022-02-07 09:24:00,,0833.3,5.00,0.00,22.7,22.4,00.0,31.6,24.4,06.1,0000.0,0000.76,0000.49,0000.40
2022-02-07 09:25:00,,0833.4,4.99,0.00,22.6,22.2,00.0,31.6,24.4,06.1,0000.0,0000.70,0000.47,0000.40
2022-02-07 09:26:00,,0833.4,5.02,0.00,22.6,22.1,00.0,31.6,24.3,06.2,0000.0,0000.71,0000.47,0000.39
2022-02-07 09:27:00,,0833.3,4.99,0.00,22.6,22.0,00.0,31.6,24.3,06.1,0000.0,0000.74,0000.48,0000.40
2022-02-07 09:28:00,,0833.3,5.01,0.00,22.6,22.0,00.0,31.6,24.2,06.1,0000.0,0000.75,0000.49,0000.41
2022-02-07 09:29:00,,0833.3,5.00,0.00,22.5,21.9,00.0,31.5,24.2,06.2,0000.0,0000.79,0000.51,0000.41
2022-02-07 09:30:00,,0833.3,4.99,0.00,22.5,21.8,00.0,31.5,24.2,06.3,0000.0,0000.83,0000.52,0000.41
2022-02-07 09:31:00,,0833.3,5.01,0.00,22.5,21.8,00.0,31.5,24.1,06.3,0000.0,0000.81,0000.52,0000.42
2022-02-07 09:32:00,,0833.4,4.99,0.00,22.4,21.7,00.0,31.5,24.1,06.3,0000.0,0000.83,0000.53,0000.42
2022-02-07 09:33:00,,0833.4,5.01,0.00,22.4,21.7,00.0,31.5,24.1,06.2,0000.0,0000.82,0000.53,0000.43
2022-02-07 09:34:00,,0833.3,4.99,0.00,22.4,21.6,00.0,31.5,24.1,06.1,0000.0,0000.82,0000.54,0000.44
2022-02-07 09:35:00,,0833.3,4.99,0.00,22.4,21.6,00.0,31.5,24.0,06.0,0000.0,0000.87,0000.57,0000.44
2022-02-07 09:36:00,,0833.3,5.02,0.00,22.3,21.5,00.0,31.5,24.0,06.1,0000.0,0000.94,0000.61,0000.44
2022-02-07 09:37:00,,0833.3,4.98,0.00,22.3,21.5,00.0,31.4,24.0,06.1,0000.0,0000.94,0000.61,0000.45
2022-02-07 09:38:00,,0833.3,5.01,0.00,22.3,21.5,00.0,31.4,23.9,06.1,0000.0,0000.92,0000.62,0000.45
2022-02-07 09:39:00,,0833.3,4.99,0.00,22.3,21.9,00.0,31.4,24.1,06.1,0000.0,0000.97,0000.63,0000.45
2022-02-07 09:40:00,,0833.3,5.00,0.00,22.5,22.8,00.0,31.5,24.3,06.2,0000.0,0001.06,0000.66,0000.45
2022-02-07 09:41:00,,0833.3,4.99,0.00,22.6,23.2,00.0,31.5,24.5,06.4,0000.0,0001.02,0000.65,0000.45
2022-02-07 09:42:00,,0833.3,5.00,0.00,22.6,23.0,00.0,31.5,24.6,06.3,0000.0,0001.05,0000.66,0000.45
2022-02-07 09:43:00,,0833.2,5.00,0.00,22.6,22.8,00.0,31.5,24.5,06.2,0000.0,0001.09,0000.68,0000.46
2022-02-07 09:44:00,,0833.2,5.01,0.00,22.6,22.6,00.0,31.5,24.4,06.4,0000.0,0001.08,0000.68,0000.46
2022-02-07 09:45:00,,0833.2,4.99,0.00,22.6,22.4,00.0,31.5,24.3,06.4,0000.0,0001.06,0000.67,0000.47
2022-02-07 09:46:00,,0833.1,5.00,0.00,22.6,22.2,00.0,31.5,24.3,06.4,0000.0,0001.04,0000.66,0000.47
2022-02-07 09:47:00,,0833.1,5.00,0.00,22.5,22.1,00.0,31.5,24.2,06.4,0000.0,0000.96,0000.62,0000.47
2022-02-07 09:48:00,,0833.2,4.99,0.00,22.5,22.0,00.0,31.5,24.2,06.4,0000.0,0000.92,0000.61,0000.47
2022-02-07 09:49:00,,0833.1,4.99,0.00,22.5,21.9,00.0,31.5,24.1,06.4,0000.0,0000.92,0000.62,0000.47
2022-02-07 09:50:00,,0833.1,5.02,0.00,22.4,21.8,00.0,31.5,24.1,06.4,0000.0,0000.90,0000.61,0000.48
2022-02-07 09:51:00,,0833.1,4.99,0.00,22.4,21.7,00.0,31.5,24.0,06.4,0000.0,0000.80,0000.57,0000.48
2022-02-07 09:52:00,,0833.1,5.00,0.00,22.4,21.6,00.0,31.5,24.0,06.5,0000.0,0000.94,0000.62,0000.48
2022-02-07 09:53:00,,0833.1,5.01,0.00,22.3,21.6,00.0,31.4,24.0,06.5,0000.0,0001.01,0000.66,0000.48
2022-02-07 09:54:00,,0833.1,4.99,0.00,22.3,21.6,00.0,31.4,24.0,06.6,0000.0,0000.94,0000.63,0000.47
2022-02-07 09:55:00,,0833.1,5.01,0.00,22.3,21.5,00.0,31.4,23.9,06.6,0000.0,0000.91,0000.62,0000.47
2022-02-07 09:56:00,,0833.1,5.00,0.00,22.3,21.5,00.0,31.4,23.9,06.7,0000.0,0000.91,0000.61,0000.46
2022-02-07 09:57:00,,0833.1,4.99,0.00,22.2,21.5,00.0,31.4,23.9,06.7,0000.0,0000.94,0000.62,0000.46
2022-02-07 09:58:00,,0833.1,5.01,0.00,22.2,21.5,00.0,31.4,23.9,06.8,0000.0,0000.94,0000.62,0000.46
2022-02-07 09:59:00,,0833.1,5.00,0.00,22.3,22.2,00.0,31.4,24.1,06.7,0000.0,0001.52,0000.62,0000.47
